Vertical_Velocity
-6 -7 -5 -3 -1 -3 -9 -5 -1 -0 -7 -8 -6 -3 -2 -2 -2 -2 0 1 -1 -4 -5 -7 -7 -7 -8 -8 -7 -6 -5 -5 -5 -5 -3 -2 -1 0 1 1 1 2 2 2 2 1 1 2 1 1 2 4 4 4 3 5 5 3 0 -2 -0 1 -2 -2 -4 -6 -9 -12 -14 -17 -19 -16 -6 3 3 -4 -5 -3 -4 -6 -7 -6 -2 2 3 4
-3 -4 -5 -3 -0 -1 -9 -8 -3 -1 -5 -7 -6 -5 -2 -1 -2 -3 -3 -3 -4 -4 -5 -6 -7 -7 -8 -8 -8 -7 -6 -6 -5 -4 -3 -2 -2 -2 -1 -0 1 3 4 4 4 2 1 0 0 1 3 5 5 4 4 5 4 1 -4 -3 -2 -1 -4 -5 -7 -8 -7 -11 -14 -17 -20 -20 -12 -2 3 -1 -2 0 3 2 -2 -6 -6 2 7 8
-3 -5 -8 -5 -2 -2 -8 -8 -5 -2 -2 -4 -5 -4 -2 -1 -3 -5 -6 -6 -5 -5 -4 -5 -6 -7 -8 -8 -8 -7 -6 -5 -3 -2 -2 -3 -4 -3 -2 -0 2 3 5 4 3 2 1 0 0 2 5 7 7 6 4 4 2 -1 -6 -1 1 1 -1 -3 -5 -6 -7 -9 -12 -15 -18 -21 -17 -9 1 -0 1 5 8 4 -2 -8 -10 -4 0 4
-2 -5 -10 -6 -4 -4 -6 -5 -4 -3 -2 -4 -5 -4 -1 -1 -4 -7 -6 -5 -5 -5 -5 -4 -4 -5 -6 -7 -6 -5 -4 -3 -2 -2 -2 -3 -3 -3 -2 -1 0 2 3 3 3 2 1 0 1 3 5 8 9 8 6 7 4 -1 -4 1 3 3 1 -1 -2 -4 -5 -6 -8 -11 -15 -18 -18 -15 -8 -4 -1 3 6 4 -1 -7 -9 -4 0 6
-3 -3 -6 -3 -4 -5 -6 -4 -3 -4 -4 -4 -4 -3 -1 -2 -5 -7 -7 -4 -3 -4 -5 -4 -3 -3 -4 -4 -5 -4 -3 -2 -2 -3 -3 -4 -5 -5 -5 -3 -2 0 2 2 2 2 1 1 1 2 5 9 9 9 7 7 3 -2 -4 1 3 2 1 -0 -2 -3 -4 -5 -6 -7 -10 -14 -17 -18 -16 -12 -8 -4 -1 -0 -4 -9 -13 -5 3 10
-5 -3 -3 -2 -5 -8 -7 -5 -5 -5 -5 -5 -4 -2 0 -2 -3 -5 -6 -5 -4 -3 -4 -3 -3 -2 -0 -1 -2 -2 -2 -2 -2 -3 -4 -6 -7 -7 -6 -4 -2 -1 1 1 1 1 1 0 0 1 4 8 10 10 8 6 1 -3 -0 3 4 3 1 -1 -2 -3 -4 -3 -4 -4 -7 -9 -13 -15 -17 -15 -13 -10 -6 -4 -8 -14 -18 -7 1 5
-7 -4 -1 -2 -5 -7 -6 -6 -5 -3 -3 -6 -6 -4 -2 -2 -1 -0 -2 -3 -3 -3 -4 -4 -1 2 4 3 1 -0 -2 -4 -5 -6 -6 -6 -7 -6 -5 -4 -3 -2 -0 1 1 1 0 -0 -0 1 4 8 11 11 10 5 0 -1 3 7 8 6 2 -0 -1 -2 -3 -2 -2 -2 -3 -5 -8 -10 -12 -15 -16 -14 -10 -8 -9 -11 -10 -4 -2 -2
-8 -7 -2 -1 -3 -6 -7 -7 -5 -2 1 -1 -3 -5 -7 -5 -3 -1 -0 1 1 1 0 -0 1 3 4 3 1 -2 -5 -7 -8 -9 -8 -8 -7 -6 -5 -4 -3 -2 -1 -0 -0 -1 -1 -2 -2 -1 2 7 11 12 10 3 -1 -0 5 9 10 7 2 0 -0 0 0 -0 -0 -0 -0 -2 -4 -6 -8 -12 -15 -14 -9 -5 -3 -3 -3 -4 -6 -8
-5 -7 -7 -4 -2 -3 -7 -11 -9 -4 2 3 1 -0 -3 -5 -6 -5 -3 -0 3 6 7 5 1 -3 -5 -3 -3 -4 -8 -8 -7 -7 -7 -7 -7 -6 -5 -4 -3 -3 -2 -2 -2 -2 -2 -2 -2 -1 1 6 10 11 9 2 -1 -0 5 8 9 7 3 1 2 2 3 2 0 -0 0 -1 -2 -4 -6 -9 -11 -11 -8 -2 -1 -4 -7 -7 -9 -11
-2 -4 -7 -7 -4 -0 -0 -9 -11 -8 2 2 1 0 1 -1 -3 -4 -4 -2 1 5 7 4 -1 -8 -14 -12 -9 -6 -6 -8 -8 -6 -3 -5 -5 -5 -5 -4 -4 -4 -4 -3 -2 -2 -1 -1 -0 0 1 5 8 9 6 0 -3 -2 1 3 5 5 4 3 3 3 4 3 1 -0 0 -1 -3 -4 -6 -8 -11 -12 -10 -5 -6 -8 -10 -9 -11 -13
-4 -3 -3 -5 -4 -2 1 -4 -6 -5 2 3 1 -2 -1 3 6 7 3 -4 -6 -5 -3 -2 -2 -4 -9 -14 -14 -10 -4 -7 -9 -8 -5 -4 -4 -4 -5 -4 -3 -3 -3 -2 -1 -1 -1 -1 -1 -0 2 4 6 6 3 -1 -2 -3 -2 -1 1 3 3 2 2 3 4 3 2 -0 -1 -3 -4 -5 -7 -8 -10 -11 -11 -8 -8 -9 -10 -11 -15 -15
-3 -4 -3 -2 -2 -2 -4 -5 -4 -1 3 5 5 4 6 10 13 13 7 -5 -11 -12 -10 -8 -4 -1 -1 -7 -12 -13 -7 -6 -7 -8 -6 -4 -3 -2 -3 -3 -2 -1 0 0 0 -0 -2 -3 -3 -1 2 3 3 2 1 1 1 1 -1 -1 -1 0 0 0 1 2 3 2 1 -1 -3 -4 -6 -6 -7 -8 -9 -9 -9 -7 -7 -8 -11 -13 -15 -11
-1 -1 -1 -0 1 1 -2 -4 -4 -2 4 9 12 11 6 3 4 5 2 -5 -8 -8 -7 -8 -8 -7 -3 -1 -3 -6 -7 -6 -5 -4 -2 -2 -1 -0 -0 -3 -3 -2 1 1 0 -1 -1 -3 -3 -2 2 3 1 -1 -1 1 3 3 2 1 -0 -1 -1 -1 -0 2 3 2 0 -2 -4 -5 -6 -7 -7 -7 -7 -8 -8 -7 -7 -7 -10 -12 -11 -4
-0 2 5 3 1 0 2 3 4 5 7 10 9 5 -1 -4 -3 -1 -1 -7 -9 -7 -2 -4 -8 -11 -8 -3 -0 0 -0 -2 -3 -3 -2 -1 0 0 -1 -6 -8 -5 1 0 -2 -3 -1 -1 -3 -5 -1 3 1 -2 -4 -1 2 4 3 2 1 -0 -2 -2 -1 1 2 1 -0 -2 -3 -5 -6 -6 -6 -6 -6 -6 -7 -7 -6 -6 -9 -10 -7 2
2 5 5 -1 -5 -5 -2 4 8 9 6 3 1 -2 -6 -7 -5 -3 -0 -6 -10 -9 -5 -6 -8 -9 -6 -1 2 5 6 4 0 -3 -6 -6 -3 0 2 -5 -10 -9 -0 -0 -4 -6 -3 -0 -2 -4 -2 2 1 -1 -1 3 5 5 3 1 -1 -1 -1 -0 1 1 2 1 -0 -2 -3 -4 -4 -4 -3 -4 -4 -4 -5 -6 -6 -7 -9 -8 -4 3
3 3 -1 -8 -10 -8 -4 6 10 8 0 -3 -4 -4 -4 -5 -6 -4 -2 -4 -6 -6 -3 -5 -9 -13 -15 -6 2 8 10 5 1 -3 -5 -11 -11 -5 5 -2 -9 -12 -5 -1 -3 -7 -5 -2 -1 -1 1 1 -0 -0 2 6 8 7 3 -2 -3 -2 -1 1 2 3 3 2 1 -0 -2 -2 -1 -1 -0 -1 -2 -3 -4 -6 -7 -8 -8 -6 -3 1
-0 -1 -4 -6 -7 -6 -1 8 8 3 -3 -6 -6 -5 -2 -2 -2 -3 -2 -3 -2 -1 1 2 -1 -8 -20 -20 -11 1 10 7 1 -4 -4 -11 -13 -8 4 2 -5 -12 -10 -3 -2 -3 -4 -3 -3 -2 -1 -0 -1 -0 2 7 10 10 5 -1 -3 -3 -1 1 3 4 3 3 2 1 1 1 1 1 1 -0 -1 -2 -4 -6 -7 -7 -6 -4 -3 -1
-2 -3 -4 -5 -5 -4 4 6 3 -1 -4 -6 -7 -6 -3 -1 0 2 2 1 1 0 -1 2 3 1 -4 -14 -17 -10 8 9 2 -5 -7 -12 -15 -12 0 3 -0 -5 -7 -4 -3 -1 0 -2 -3 -3 -3 -2 -1 0 1 6 10 11 8 2 -2 -3 -1 1 3 4 3 3 3 3 2 2 3 3 2 0 -1 -2 -4 -7 -8 -7 -5 -4 -4 -3
-6 -7 -4 -3 -1 3 6 3 -0 -2 -3 -4 -4 -3 -5 -7 -4 0 3 3 1 -0 0 1 -0 -1 1 -7 -14 -12 5 8 4 -3 -8 -14 -18 -15 -2 1 -1 -4 -5 -4 -2 -1 -0 -2 -3 -4 -4 -3 -4 -3 -2 4 10 13 12 6 3 1 0 2 3 4 4 4 4 4 2 3 3 3 2 0 -1 -2 -4 -6 -6 -5 -3 -3 -5 -5
-10 -9 -5 4 9 9 2 -3 -4 -3 -2 -2 -1 -0 -2 -6 -4 -1 -0 1 1 1 1 1 -2 -4 -4 -8 -13 -13 -2 5 4 -1 -7 -11 -15 -14 -4 1 -0 -4 -6 -5 -3 -0 0 -2 -3 -4 -5 -6 -7 -6 -4 2 9 13 13 8 4 2 1 2 3 5 5 4 4 4 3 4 4 3 2 -1 -2 -4 -6 -6 -5 -4 -4 -4 -5 -6
-6 -4 3 15 15 6 -7 -9 -7 -3 -0 1 1 -1 -4 -3 -2 0 0 2 2 1 2 3 -1 -5 -5 -7 -13 -15 -5 4 4 -1 -6 -7 -11 -11 -5 -0 -0 -3 -7 -8 -5 -1 1 -1 -3 -5 -7 -8 -8 -7 -5 -0 6 11 13 10 5 1 0 2 4 5 5 4 4 4 5 5 4 3 1 -1 -3 -5 -6 -7 -7 -6 -6 -6 -7 -7
-0 -0 3 7 4 -2 -9 -10 -7 -2 2 3 1 -1 -4 -0 1 1 1 3 2 0 -1 -2 -4 -6 -3 -6 -11 -12 -2 5 7 5 1 -5 -14 -17 -5 1 1 -2 -7 -8 -6 -2 1 -0 -3 -5 -7 -8 -8 -8 -8 -4 2 8 12 10 6 2 0 2 4 6 6 5 4 4 5 6 5 4 1 -2 -5 -7 -8 -9 -9 -9 -8 -8 -8 -7
-1 -2 -3 -2 -3 -5 -7 -6 -4 -3 -1 0 0 0 2 6 7 5 1 0 -1 -2 -4 -5 -6 -5 -2 -4 -6 -5 1 6 9 9 9 -0 -14 -21 -9 -0 1 -2 -8 -7 -5 -3 -2 -1 -2 -4 -7 -8 -10 -10 -10 -6 -2 4 9 10 7 4 1 2 4 6 7 4 3 3 5 7 7 5 2 -2 -5 -7 -9 -10 -10 -10 -10 -9 -9 -8
-3 -5 -6 -6 -6 -5 -4 -4 -4 -4 -3 1 4 7 10 11 10 7 2 -0 -2 -3 -5 -4 -4 -4 -5 -2 -2 -2 -1 4 7 8 8 0 -10 -15 -10 -1 0 -4 -11 -7 -4 -1 -2 -2 -2 -2 -4 -9 -11 -11 -10 -8 -5 -0 5 8 8 5 1 1 3 5 6 4 2 2 3 6 7 7 5 1 -3 -6 -8 -9 -9 -9 -9 -9 -8 -7
-4 -5 -7 -7 -6 -6 -5 -5 -3 1 6 10 13 14 12 8 5 2 1 -0 -1 -1 -1 -0 -2 -4 -8 -5 -4 -5 -7 -0 4 7 7 0 -8 -12 -8 0 2 -3 -11 -9 -4 1 1 -2 -2 -2 -2 -8 -11 -12 -10 -9 -6 -3 2 6 7 6 2 1 2 4 5 4 2 1 2 5 7 8 8 5 1 -2 -3 -3 -3 -4 -4 -6 -7 -6
-0 -1 -2 -2 -2 -2 -1 3 7 10 12 11 8 4 3 2 1 -0 -2 -2 -1 0 2 1 -3 -6 -7 -5 -6 -9 -9 -3 3 7 8 4 -4 -11 -11 -2 2 -0 -8 -8 -4 1 1 -2 -2 -2 -1 -7 -10 -10 -9 -7 -5 -3 -1 2 5 5 4 2 2 3 4 3 1 -0 -0 3 6 8 9 7 5 2 1 1 2 2 2 -2 -5 -5
4 4 4 3 2 3 5 8 8 7 5 4 3 3 5 5 3 1 -3 -4 -2 1 3 0 -4 -8 -8 -5 -6 -8 -7 -4 -1 2 7 8 2 -6 -13 -4 1 2 -3 -7 -5 -1 1 -1 -2 -2 -1 -5 -7 -8 -7 -5 -4 -4 -5 -3 0 3 3 2 2 2 3 3 1 -0 -1 1 3 6 9 10 9 8 7 6 6 7 7 2 -3 -5
4 3 3 2 1 2 3 2 1 0 -1 -1 0 3 6 5 3 -1 -7 -5 -1 2 2 1 -1 -4 -7 -7 -8 -8 -6 -4 -2 1 7 9 5 -2 -10 -4 0 2 0 -7 -9 -7 0 -0 -1 -1 -1 -2 -3 -4 -5 -6 -7 -8 -9 -7 -4 -1 2 2 2 2 3 3 2 0 -2 -2 0 3 6 8 10 11 11 9 9 8 7 4 -0 -4
0 -1 -2 -2 -1 -0 1 0 -1 -2 -3 -2 -0 2 3 3 1 -1 -5 -2 1 3 1 1 1 0 -3 -6 -8 -8 -6 -4 -1 4 8 9 3 -4 -6 -3 -2 -1 1 -6 -12 -13 -6 -2 0 2 1 1 -0 -3 -7 -10 -11 -11 -10 -9 -6 -3 -0 1 2 2 3 3 2 1 -1 -2 -2 -0 2 4 7 9 10 10 9 7 5 3 1 -2
-1 -2 -3 -3 -2 -1 -1 -2 -3 -5 -4 -2 -0 1 2 2 1 -0 -2 1 3 3 1 -1 -0 1 0 -3 -6 -9 -12 -8 -1 6 8 7 -1 -7 -6 -3 -3 -2 3 0 -7 -14 -17 -9 -1 5 4 2 -0 -4 -9 -12 -12 -11 -10 -9 -8 -6 -3 -1 1 2 2 3 2 1 -0 -1 -2 -1 -0 1 3 5 7 8 7 6 4 3 2 -1
0 -0 -2 -3 -3 -3 -3 -4 -5 -5 -4 -3 -1 -0 0 0 -0 -0 -0 1 2 3 2 -0 -1 0 3 4 0 -8 -20 -17 -6 6 10 8 1 -5 -3 -2 -3 -3 4 9 6 -3 -18 -20 -12 -1 7 4 1 -3 -7 -9 -10 -9 -8 -8 -8 -7 -5 -2 -0 1 1 1 2 2 1 0 -1 -1 -1 0 1 2 4 6 6 6 4 4 3 1
2 0 -3 -4 -4 -4 -4 -4 -4 -4 -4 -4 -4 -4 -4 -3 -2 -1 -0 1 2 3 3 1 0 0 2 6 5 -2 -16 -19 -10 3 12 10 3 -3 0 2 -1 -4 -0 8 11 9 -2 -17 -19 -12 2 4 3 0 -3 -5 -7 -8 -7 -6 -7 -7 -6 -2 -0 0 -0 0 1 2 2 2 1 -0 -0 0 1 1 3 5 5 5 4 3 3 1
1 -1 -4 -4 -4 -4 -3 -3 -4 -4 -5 -6 -7 -7 -6 -4 -3 -1 0 1 3 4 4 3 2 1 0 3 3 -1 -9 -11 -6 3 13 12 5 -2 -2 1 -0 -3 -3 1 5 7 6 -5 -12 -14 -8 -1 3 4 1 -3 -5 -7 -6 -5 -5 -6 -6 -2 -0 0 -0 -0 0 1 2 2 2 1 1 1 1 1 2 4 4 3 2 2 1 0
-1 -3 -4 -4 -3 -3 -3 -2 -3 -4 -5 -5 -5 -4 -3 -3 -2 -1 -0 1 2 4 4 4 4 3 1 0 -2 -5 -9 -8 -1 7 13 13 7 0 -3 -0 -0 -1 -2 -3 -2 -0 1 -3 -6 -8 -12 -10 -3 4 5 0 -4 -5 -4 -3 -3 -4 -5 -3 -1 -0 -1 -0 -0 -0 0 1 2 2 1 1 1 2 2 3 3 3 1 1 0 -1
-2 -3 -3 -2 -2 -2 -2 -2 -2 -3 -4 -4 -3 -2 -1 -0 -1 -0 -0 0 1 2 3 3 3 4 4 3 -0 -6 -13 -10 -2 7 12 12 8 4 0 -1 0 1 2 -2 -2 -2 -4 -7 -6 -4 -5 -11 -11 -5 5 5 2 -1 -3 -3 -3 -4 -6 -4 -3 -2 -2 -2 -1 -1 -0 1 1 1 1 1 1 1 1 2 2 2 1 0 -0 -1
-1 -2 -2 -2 -2 -2 -2 -2 -3 -3 -4 -4 -3 -2 -0 0 1 1 0 0 1 2 2 2 2 3 4 5 3 -2 -11 -10 -4 3 9 10 10 8 5 -0 0 3 5 1 -0 0 -0 -6 -7 -5 -0 -5 -10 -10 -4 3 6 3 -2 -5 -6 -7 -7 -5 -3 -2 -2 -3 -2 -2 -1 0 1 1 0 -0 -0 -0 0 1 1 1 1 0 -0 -1
-1 -2 -3 -3 -2 -2 -2 -3 -3 -4 -4 -4 -3 -2 -1 0 1 1 1 1 2 2 2 1 1 2 3 5 4 1 -4 -6 -4 -1 3 7 9 10 9 1 1 4 8 5 2 1 2 -2 -6 -7 -3 -3 -5 -8 -9 -3 2 4 -0 -4 -6 -8 -9 -6 -3 -1 -1 -1 -2 -2 -2 -2 -1 -1 -1 -1 -1 -1 -1 -1 0 1 1 0 -0 -0
-1 -2 -4 -4 -3 -2 -2 -2 -3 -3 -3 -2 -2 -2 -1 -1 -0 0 1 0 0 -0 -1 -2 -3 -3 -1 1 2 1 -1 -3 -4 -4 -0 4 7 9 9 3 1 2 7 7 5 4 4 2 -2 -5 -8 -7 -6 -5 -4 -2 1 1 -0 -2 -3 -5 -7 -6 -4 -2 -1 -1 -2 -3 -3 -3 -3 -2 -2 -2 -3 -3 -3 -3 -1 -0 1 0 -0 -1
-1 -3 -4 -4 -3 -2 -1 -2 -3 -3 -2 -2 -1 -1 -1 -1 -1 -1 -1 -1 -2 -3 -4 -4 -5 -6 -5 -3 -2 -1 -1 -2 -2 -2 0 3 5 7 7 4 1 -0 2 5 6 6 6 4 1 -1 -4 -7 -10 -10 -6 -1 1 2 0 -1 -3 -5 -5 -5 -4 -3 -2 -2 -3 -4 -5 -4 -3 -3 -3 -3 -3 -3 -4 -4 -3 -2 -0 -0 -0 -0
-2 -3 -4 -3 -2 -1 -1 -2 -2 -2 -1 -2 -2 -1 -1 -1 -2 -2 -2 -2 -3 -4 -4 -3 -3 -4 -4 -3 -2 -1 -0 0 0 0 1 2 4 6 6 5 2 1 1 3 4 5 5 3 0 -1 -0 -2 -5 -9 -10 -6 -3 0 3 2 -2 -5 -5 -3 -4 -4 -3 -1 -1 -2 -4 -4 -3 -3 -3 -3 -3 -3 -4 -5 -4 -2 1 1 1 1
-2 -3 -4 -3 -2 -1 -1 -2 -2 -1 -1 -1 -2 -3 -3 -2 -2 -3 -4 -4 -4 -3 -2 -1 -1 -3 -5 -4 -2 -0 0 -0 -0 -1 -0 0 2 3 5 4 3 3 4 4 4 4 5 4 1 -2 -2 -1 -3 -6 -8 -7 -5 -1 4 4 1 -2 -2 -1 -1 -2 -3 -3 -2 -1 -1 -2 -2 -2 -2 -3 -3 -4 -4 -4 -4 -3 2 4 5 5
-2 -3 -4 -3 -2 -1 -2 -2 -1 -1 -1 -1 -1 -3 -4 -2 -2 -2 -4 -5 -5 -4 -1 1 -0 -3 -8 -9 -7 -2 1 0 -0 -1 -1 -0 1 2 3 3 2 3 5 6 5 4 4 5 4 1 -1 -1 -2 -5 -10 -11 -7 -2 2 1 0 -1 -2 -0 2 4 1 -2 -2 -1 0 -0 -0 -1 -1 -1 -3 -4 -3 -2 -2 -2 -1 3 6 8
-3 -3 -3 -2 -2 -1 -1 -0 -0 -1 -1 -1 -2 -3 -3 -1 0 -0 -2 -3 -4 -3 -0 1 1 -1 -6 -11 -12 -9 -4 -1 0 1 1 1 2 2 3 2 3 3 4 6 5 3 2 5 5 2 -1 1 1 -2 -7 -10 -9 -6 -3 -1 1 2 -2 -6 -1 5 6 2 -0 -2 -2 -2 -2 -2 -2 -1 -2 -3 -3 -2 -0 0 0 1 5 9
-3 -3 -2 -1 -1 -0 0 -0 -1 -2 -1 -2 -3 -3 -3 -1 1 2 0 -2 -3 -2 0 1 1 -0 -3 -7 -9 -10 -9 -6 -2 1 2 2 2 2 2 2 2 2 3 5 5 3 2 3 3 3 3 4 3 0 -4 -5 -6 -6 -6 -4 -0 2 -0 -4 -2 2 3 2 2 1 0 -1 -3 -4 -5 -4 -3 -2 -2 -2 -2 -1 0 1 3 6
-2 -2 -2 -1 -0 -0 -1 -3 -2 -1 -0 -1 -2 -3 -3 -1 0 1 1 -1 -2 -2 -0 1 2 0 -5 -8 -7 -7 -8 -8 -6 -3 -0 1 2 2 2 1 1 1 2 3 4 4 5 3 0 -0 3 5 4 1 -2 -4 -6 -7 -8 -5 -3 -3 -5 -4 -1 2 2 2 2 4 4 3 1 -2 -5 -5 -4 -3 -2 -3 -4 -4 -2 1 3 6
-1 -2 -2 -1 -1 -2 -3 -3 -1 -0 -0 -1 -2 -2 -2 -1 -0 0 -0 -0 -1 -1 -1 1 3 2 -4 -7 -7 -6 -7 -9 -8 -6 -3 -2 -0 0 1 1 1 2 2 2 2 3 4 4 2 1 2 2 0 -1 -3 -2 -3 -6 -9 -7 -5 -5 -9 -8 -5 -2 0 1 1 2 5 6 4 1 -2 -4 -6 -6 -6 -5 -5 -4 -3 -0 3 5
-2 -2 -2 -2 -2 -2 -3 -1 -0 -0 -1 -2 -2 -1 -0 0 0 -0 -1 -1 0 1 0 2 2 2 -2 -5 -5 -4 -5 -8 -9 -8 -5 -4 -3 -2 -1 -0 1 2 3 3 2 1 1 2 3 4 6 4 -0 -4 -5 -2 -0 -2 -6 -5 -5 -5 -8 -9 -8 -5 -2 -2 -1 -0 2 4 4 3 1 -2 -5 -7 -8 -5 -3 -2 -0 1 2 3
-1 -1 -1 -1 -0 -0 -1 -1 -1 -1 -2 -2 -2 -1 -0 1 1 1 -1 -1 -0 1 1 1 1 -1 -3 -4 -3 -2 -1 -3 -5 -7 -6 -5 -4 -3 -2 -1 -1 0 1 1 1 1 0 1 2 4 5 5 2 -2 -7 -3 -1 -0 -2 -3 -3 -4 -6 -9 -8 -6 -4 -4 -4 -2 -0 1 2 2 1 -1 -4 -6 -6 -4 -2 -0 1 2 3 2
0 0 -0 1 1 -0 -2 -2 -2 -1 -1 -2 -1 -1 -1 -0 1 1 0 -1 -1 -0 -0 -0 -1 -2 -4 -5 -4 -2 -0 -1 -3 -4 -4 -3 -2 -2 -2 -2 -2 -2 -2 -2 -1 -1 -1 -1 1 3 4 5 4 1 -4 -3 -1 -0 -0 -1 -2 -3 -5 -7 -7 -6 -5 -5 -5 -4 -3 -2 -1 -0 1 -0 -3 -5 -5 -5 -4 -2 1 3 4 4
1 1 1 1 -0 -2 -3 -2 -1 -1 -2 -1 -0 -0 -1 -1 -0 -0 -1 -1 -1 -1 -0 -0 -0 -1 -4 -6 -5 -3 -1 -2 -3 -3 -3 -2 -1 -1 -2 -2 -2 -3 -4 -5 -5 -4 -5 -5 -4 -1 3 6 6 4 1 -1 -1 -0 1 -1 -2 -2 -3 -5 -6 -6 -5 -5 -5 -5 -4 -4 -4 -3 -1 -2 -3 -5 -6 -5 -4 -2 2 4 5 5
1 0 0 -0 -1 -2 -2 -2 -1 -1 -1 -0 0 1 -0 -1 -1 -1 -1 -0 -0 -1 -1 -0 0 -0 -3 -5 -5 -3 -2 -1 -2 -3 -4 -2 -0 0 -1 -1 -0 -0 -2 -4 -6 -6 -6 -7 -9 -9 -6 4 9 10 7 4 3 2 2 -1 -1 -1 -1 -3 -5 -5 -4 -4 -5 -4 -4 -4 -4 -4 -3 -3 -4 -5 -6 -5 -3 0 4 7 7 6
Height
1426 1424 1423 1422 1421 1419 1417 1417 1416 1415 1412 1411 1410 1408 1407 1406 1404 1402 1401 1400 1398 1396 1394 1392 1389 1387 1385 1383 1382 1380 1379 1377 1376 1374 1372 1371 1369 1367 1365 1363 1361 1359 1357 1356 1354 1352 1351 1349 1347 1346 1345 1344 1343 1342 1342 1342 1341 1341 1340 1339 1337 1336 1334 1333 1332 1331 1329 1327 1325 1322 1319 1315 1312 1310 1310 1309 1307 1304 1302 1299 1294 1290 1285 1282 1279 1277
1424 1423 1422 1421 1420 1418 1415 1414 1414 1413 1411 1409 1407 1406 1405 1403 1402 1400 1398 1397 1395 1393 1391 1389 1387 1384 1382 1380 1378 1377 1376 1374 1373 1371 1370 1368 1366 1364 1362 1360 1358 1356 1354 1352 1351 1349 1347 1346 1344 1342 1341 1341 1340 1339 1339 1339 1338 1338 1337 1336 1335 1334 1333 1332 1330 1329 1327 1326 1324 1321 1318 1314 1310 1306 1305 1304 1303 1300 1297 1294 1291 1287 1284 1280 1277 1276
1422 1421 1419 1418 1417 1416 1413 1412 1411 1410 1409 1407 1405 1404 1402 1401 1399 1397 1395 1393 1392 1390 1388 1386 1384 1382 1379 1377 1375 1374 1372 1372 1370 1369 1367 1365 1363 1361 1359 1357 1355 1353 1351 1349 1347 1346 1344 1342 1341 1339 1338 1337 1337 1337 1336 1336 1335 1335 1334 1333 1332 1332 1330 1329 1328 1327 1326 1324 1322 1320 1317 1314 1309 1304 1301 1300 1298 1296 1293 1289 1287 1286 1283 1279 1276 1276
1420 1419 1417 1416 1415 1413 1412 1410 1409 1408 1407 1405 1403 1401 1400 1398 1396 1394 1392 1391 1389 1387 1385 1383 1382 1379 1377 1375 1373 1371 1370 1369 1368 1366 1364 1362 1361 1358 1356 1354 1352 1350 1348 1346 1344 1343 1341 1339 1337 1336 1335 1334 1334 1334 1333 1333 1332 1332 1331 1330 1330 1329 1328 1327 1326 1325 1323 1322 1321 1319 1317 1314 1309 1305 1300 1297 1294 1292 1289 1286 1284 1283 1280 1278 1277 1277
1418 1417 1416 1414 1413 1411 1409 1408 1407 1406 1404 1402 1400 1398 1397 1395 1393 1392 1390 1388 1386 1384 1382 1381 1379 1377 1375 1373 1371 1369 1368 1367 1365 1364 1362 1360 1357 1355 1353 1351 1348 1346 1345 1343 1341 1340 1338 1336 1334 1332 1332 1331 1331 1331 1330 1330 1330 1329 1328 1327 1327 1327 1326 1325 1324 1322 1321 1320 1318 1317 1315 1312 1310 1306 1301 1297 1293 1289 1286 1283 1282 1280 1279 1278 1277 1276
1416 1415 1414 1413 1411 1409 1407 1406 1405 1403 1402 1400 1397 1396 1395 1393 1391 1389 1387 1386 1384 1382 1380 1378 1377 1375 1373 1371 1369 1368 1366 1365 1363 1361 1359 1357 1354 1352 1350 1347 1345 1343 1342 1340 1338 1337 1335 1333 1331 1329 1328 1328 1327 1327 1327 1327 1327 1326 1325 1325 1324 1324 1323 1322 1321 1320 1319 1317 1316 1314 1313 1311 1309 1306 1302 1298 1294 1289 1285 1282 1281 1281 1281 1280 1278 1275
1413 1413 1412 1411 1409 1407 1405 1404 1402 1402 1400 1397 1395 1393 1392 1391 1389 1387 1386 1384 1382 1380 1378 1376 1374 1373 1372 1370 1368 1367 1364 1362 1360 1358 1356 1353 1351 1349 1347 1344 1342 1340 1338 1337 1335 1334 1332 1330 1328 1327 1325 1324 1324 1324 1324 1324 1323 1322 1322 1321 1322 1321 1321 1320 1318 1317 1316 1315 1313 1312 1311 1309 1307 1305 1302 1299 1295 1291 1287 1285 1283 1283 1282 1281 1278 1274
1411 1410 1410 1409 1407 1405 1403 1402 1401 1400 1398 1396 1394 1392 1390 1388 1387 1386 1384 1382 1381 1379 1377 1375 1373 1372 1370 1369 1367 1365 1362 1360 1357 1355 1352 1350 1348 1345 1343 1341 1339 1337 1336 1334 1332 1331 1329 1327 1325 1324 1322 1322 1321 1322 1321 1321 1320 1319 1318 1318 1318 1318 1318 1317 1316 1314 1313 1312 1311 1309 1308 1307 1305 1303 1301 1299 1296 1292 1289 1287 1286 1284 1283 1280 1277 1274
1409 1408 1407 1407 1405 1403 1401 1399 1398 1397 1397 1395 1393 1391 1388 1386 1385 1383 1382 1380 1379 1378 1377 1374 1372 1370 1368 1367 1365 1363 1360 1358 1355 1352 1350 1347 1345 1342 1340 1338 1336 1334 1332 1331 1329 1327 1326 1324 1323 1321 1320 1319 1318 1318 1318 1318 1317 1316 1315 1314 1314 1314 1314 1313 1312 1311 1310 1309 1308 1307 1305 1304 1302 1301 1299 1297 1295 1293 1290 1287 1286 1284 1281 1278 1276 1274
1408 1407 1405 1404 1403 1402 1400 1397 1395 1395 1395 1393 1392 1390 1387 1385 1383 1381 1379 1378 1377 1377 1376 1374 1371 1368 1365 1363 1362 1360 1358 1355 1352 1350 1348 1346 1343 1341 1338 1336 1334 1332 1330 1328 1326 1325 1323 1322 1320 1318 1317 1316 1316 1316 1316 1316 1315 1314 1312 1312 1311 1310 1310 1309 1308 1307 1306 1306 1305 1304 1302 1301 1300 1298 1296 1295 1293 1291 1289 1286 1284 1282 1279 1276 1275 1274
1406 1405 1404 1402 1401 1400 1398 1397 1394 1393 1392 1391 1389 1387 1386 1384 1383 1381 1378 1376 1374 1374 1373 1372 1369 1367 1363 1361 1359 1357 1355 1352 1349 1347 1345 1343 1341 1339 1336 1334 1331 1329 1327 1325 1323 1322 1320 1319 1317 1316 1315 1314 1313 1313 1313 1313 1312 1312 1311 1309 1308 1307 1306 1305 1304 1304 1303 1302 1302 1301 1300 1298 1297 1296 1294 1292 1291 1289 1287 1284 1282 1280 1278 1276 1275 1274
1405 1404 1403 1401 1399 1398 1397 1395 1394 1392 1391 1389 1387 1386 1385 1384 1383 1382 1379 1375 1373 1371 1370 1368 1366 1365 1362 1360 1357 1355 1352 1350 1347 1344 1342 1340 1338 1337 1334 1331 1329 1327 1325 1322 1321 1319 1317 1316 1314 1313 1312 1311 1311 1310 1310 1310 1310 1309 1308 1307 1306 1304 1303 1302 1302 1301 1300 1299 1299 1298 1297 1296 1295 1294 1293 1291 1290 1288 1286 1283 1281 1279 1278 1277 1276 1274
1403 1402 1401 1400 1398 1397 1395 1394 1392 1391 1390 1388 1387 1386 1384 1383 1382 1381 1378 1375 1372 1370 1368 1366 1363 1362 1360 1359 1356 1353 1351 1348 1345 1343 1341 1339 1337 1335 1333 1330 1327 1325 1322 1320 1318 1316 1315 1313 1311 1310 1309 1308 1308 1308 1307 1307 1307 1307 1307 1305 1304 1303 1302 1301 1299 1298 1298 1297 1297 1296 1295 1294 1293 1292 1292 1290 1289 1287 1285 1283 1281 1279 1278 1277 1276 1273
1402 1401 1400 1398 1397 1396 1395 1393 1391 1390 1388 1388 1387 1385 1383 1382 1381 1379 1377 1374 1371 1369 1367 1364 1361 1359 1357 1356 1355 1352 1350 1347 1344 1341 1339 1337 1336 1334 1332 1328 1325 1322 1321 1318 1316 1313 1312 1311 1308 1306 1305 1305 1305 1305 1305 1305 1305 1305 1304 1303 1302 1301 1300 1299 1297 1297 1296 1295 1295 1294 1294 1293 1292 1292 1291 1289 1288 1286 1284 1282 1281 1279 1278 1276 1274 1270
1400 1399 1398 1397 1396 1395 1393 1392 1390 1388 1387 1386 1385 1384 1382 1381 1379 1377 1375 1372 1369 1367 1365 1362 1359 1357 1355 1354 1353 1352 1349 1346 1343 1340 1337 1335 1334 1333 1331 1327 1323 1320 1318 1316 1313 1311 1310 1308 1306 1304 1302 1302 1302 1302 1302 1302 1302 1303 1303 1302 1300 1299 1298 1297 1296 1295 1294 1293 1293 1293 1293 1292 1292 1291 1290 1288 1287 1285 1283 1281 1279 1278 1276 1274 1272 1268
1398 1398 1397 1395 1394 1392 1391 1390 1389 1387 1386 1384 1384 1382 1381 1379 1377 1376 1374 1371 1368 1366 1364 1361 1357 1354 1352 1352 1352 1351 1349 1346 1343 1339 1336 1332 1331 1330 1330 1326 1322 1317 1315 1314 1312 1309 1307 1306 1304 1302 1300 1299 1298 1298 1299 1299 1300 1301 1301 1300 1298 1297 1295 1294 1293 1293 1292 1292 1292 1292 1291 1290 1290 1289 1288 1287 1285 1283 1282 1280 1278 1276 1274 1272 1270 1267
1396 1396 1395 1394 1392 1390 1389 1388 1387 1385 1384 1383 1382 1381 1380 1378 1376 1374 1372 1370 1367 1365 1363 1361 1358 1354 1350 1348 1348 1349 1348 1346 1342 1338 1335 1331 1328 1327 1327 1325 1320 1316 1313 1311 1309 1307 1306 1304 1302 1299 1297 1296 1295 1295 1295 1295 1296 1298 1299 1298 1296 1295 1293 1292 1291 1291 1290 1290 1290 1289 1289 1288 1288 1287 1286 1284 1283 1281 1280 1278 1277 1275 1273 1272 1270 1267
1394 1393 1393 1392 1390 1388 1387 1386 1385 1384 1383 1382 1380 1379 1377 1376 1374 1372 1371 1369 1367 1365 1362 1360 1358 1355 1351 1347 1346 1346 1347 1345 1341 1337 1333 1329 1326 1324 1324 1322 1319 1315 1311 1309 1307 1306 1304 1302 1300 1298 1296 1294 1292 1292 1291 1291 1292 1294 1295 1295 1294 1292 1291 1290 1289 1288 1288 1288 1287 1287 1287 1286 1285 1284 1283 1282 1280 1279 1278 1276 1275 1274 1272 1271 1270 1268
1392 1391 1391 1389 1388 1386 1385 1384 1383 1382 1382 1380 1379 1377 1375 1374 1372 1371 1369 1367 1366 1364 1362 1359 1357 1354 1352 1348 1345 1344 1345 1343 1340 1336 1331 1327 1323 1322 1322 1320 1317 1313 1310 1308 1306 1305 1303 1301 1299 1297 1294 1292 1290 1288 1287 1286 1287 1289 1291 1292 1292 1290 1288 1287 1287 1286 1286 1286 1285 1285 1284 1283 1282 1282 1280 1279 1278 1277 1276 1275 1274 1272 1271 1270 1269 1268
1389 1388 1388 1387 1386 1385 1383 1382 1382 1381 1380 1379 1377 1376 1374 1372 1370 1369 1367 1366 1364 1362 1360 1358 1355 1352 1350 1347 1344 1343 1343 1342 1339 1335 1330 1326 1322 1320 1319 1318 1315 1312 1308 1306 1305 1303 1302 1300 1297 1295 1293 1290 1288 1286 1283 1282 1282 1284 1286 1288 1288 1287 1286 1284 1284 1283 1283 1283 1282 1282 1282 1281 1280 1279 1278 1277 1276 1275 1274 1273 1272 1271 1270 1269 1268 1267
1387 1386 1386 1386 1385 1383 1381 1380 1380 1379 1378 1377 1376 1374 1372 1370 1368 1367 1365 1364 1362 1360 1358 1356 1354 1351 1349 1346 1343 1341 1341 1340 1337 1333 1329 1324 1320 1318 1317 1317 1314 1310 1307 1304 1303 1302 1301 1299 1296 1294 1292 1289 1287 1284 1281 1279 1277 1278 1281 1283 1284 1283 1282 1281 1281 1281 1280 1280 1279 1279 1279 1278 1278 1277 1276 1276 1275 1274 1273 1272 1271 1269 1268 1268 1267 1267
1385 1384 1383 1383 1382 1381 1379 1378 1377 1377 1377 1376 1374 1372 1370 1368 1367 1365 1363 1362 1360 1358 1356 1354 1352 1349 1347 1345 1342 1340 1339 1338 1336 1333 1328 1323 1319 1316 1316 1315 1312 1309 1306 1303 1301 1300 1299 1297 1295 1293 1291 1289 1286 1283 1280 1277 1274 1274 1276 1278 1279 1279 1279 1278 1277 1277 1277 1277 1276 1275 1275 1276 1276 1276 1275 1275 1274 1273 1272 1272 1271 1270 1268 1268 1267 1267
1382 1382 1381 1380 1380 1379 1378 1377 1376 1375 1374 1373 1372 1370 1368 1367 1365 1363 1362 1360 1359 1357 1354 1352 1349 1347 1345 1343 1341 1339 1338 1337 1335 1332 1329 1324 1318 1315 1315 1314 1311 1308 1304 1302 1300 1299 1297 1296 1294 1292 1290 1288 1286 1282 1279 1276 1272 1271 1271 1273 1275 1276 1275 1274 1274 1273 1273 1273 1273 1272 1272 1273 1273 1274 1274 1274 1274 1273 1273 1272 1272 1270 1269 1268 1268 1267
1380 1379 1378 1377 1377 1376 1376 1374 1373 1372 1372 1371 1370 1368 1367 1366 1364 1362 1361 1359 1357 1355 1352 1350 1347 1345 1343 1341 1339 1338 1336 1336 1334 1332 1328 1323 1318 1315 1313 1312 1310 1307 1303 1301 1299 1298 1296 1294 1292 1291 1290 1287 1285 1282 1279 1276 1272 1270 1268 1269 1271 1272 1272 1272 1271 1270 1270 1270 1270 1270 1270 1270 1271 1272 1273 1274 1274 1274 1274 1274 1273 1272 1270 1269 1268 1267
1377 1376 1376 1375 1374 1374 1373 1372 1372 1371 1371 1370 1369 1368 1367 1365 1363 1361 1359 1357 1355 1353 1351 1348 1346 1343 1341 1339 1338 1336 1334 1333 1332 1330 1327 1323 1318 1314 1312 1312 1310 1306 1302 1299 1298 1297 1295 1292 1291 1290 1289 1287 1285 1282 1279 1277 1273 1270 1268 1267 1268 1269 1270 1269 1268 1268 1268 1268 1268 1267 1267 1267 1268 1270 1271 1272 1273 1274 1274 1274 1273 1272 1271 1269 1268 1267
1375 1374 1373 1373 1372 1372 1372 1371 1371 1371 1370 1370 1368 1367 1365 1363 1361 1359 1357 1356 1354 1352 1350 1347 1345 1342 1340 1338 1336 1334 1332 1331 1330 1329 1326 1322 1318 1313 1311 1311 1309 1306 1302 1298 1297 1296 1294 1291 1289 1288 1288 1286 1285 1282 1280 1278 1275 1272 1269 1267 1266 1266 1267 1267 1267 1266 1266 1266 1266 1266 1265 1265 1265 1266 1267 1269 1271 1272 1272 1273 1272 1272 1270 1268 1267 1266
1374 1373 1372 1372 1372 1371 1371 1370 1370 1369 1369 1368 1367 1365 1363 1362 1360 1357 1356 1354 1353 1351 1349 1347 1343 1341 1338 1336 1334 1332 1331 1329 1328 1327 1325 1322 1318 1313 1311 1310 1308 1305 1302 1298 1296 1295 1293 1291 1289 1287 1287 1286 1284 1283 1281 1279 1277 1274 1271 1268 1266 1265 1265 1265 1265 1265 1265 1265 1265 1264 1264 1263 1263 1263 1264 1265 1267 1268 1268 1269 1269 1268 1267 1266 1265 1264
1372 1371 1371 1371 1370 1370 1369 1368 1368 1367 1366 1365 1364 1363 1362 1360 1358 1356 1354 1352 1352 1350 1348 1346 1343 1340 1337 1335 1333 1331 1329 1328 1327 1325 1324 1321 1317 1314 1311 1309 1307 1305 1302 1298 1295 1292 1292 1290 1288 1287 1286 1285 1284 1283 1282 1280 1277 1275 1272 1269 1266 1264 1264 1263 1263 1263 1263 1263 1263 1263 1263 1262 1261 1261 1261 1262 1262 1263 1264 1264 1264 1264 1263 1263 1262 1262
1369 1368 1368 1368 1367 1367 1367 1366 1365 1365 1364 1363 1362 1361 1360 1358 1357 1354 1352 1351 1350 1348 1347 1344 1342 1340 1337 1334 1332 1329 1328 1327 1326 1324 1323 1320 1317 1313 1311 1309 1307 1305 1302 1298 1293 1290 1289 1288 1287 1286 1285 1284 1284 1283 1281 1279 1277 1275 1272 1269 1267 1265 1263 1263 1262 1262 1262 1262 1262 1262 1262 1262 1261 1260 1259 1259 1259 1259 1260 1260 1261 1260 1260 1260 1260 1261
1366 1365 1365 1365 1365 1364 1364 1363 1363 1362 1362 1361 1360 1359 1357 1356 1355 1353 1351 1350 1349 1347 1345 1343 1341 1339 1337 1334 1331 1328 1326 1325 1325 1324 1322 1319 1316 1312 1310 1309 1307 1305 1303 1300 1295 1289 1286 1284 1285 1285 1284 1284 1283 1282 1281 1278 1277 1274 1272 1270 1268 1266 1264 1263 1262 1262 1261 1261 1261 1261 1261 1261 1261 1260 1259 1258 1258 1257 1258 1258 1258 1258 1258 1258 1259 1260
1363 1363 1362 1362 1362 1362 1362 1361 1360 1360 1359 1358 1357 1357 1355 1354 1353 1351 1350 1349 1347 1346 1344 1342 1340 1338 1336 1334 1331 1328 1324 1322 1322 1322 1321 1319 1315 1312 1310 1308 1306 1304 1303 1302 1298 1292 1286 1282 1281 1282 1283 1282 1282 1281 1280 1278 1277 1275 1272 1271 1268 1267 1265 1264 1262 1262 1261 1260 1260 1260 1260 1260 1260 1259 1258 1258 1257 1257 1257 1257 1257 1257 1257 1257 1258 1259
1361 1361 1360 1360 1360 1359 1359 1359 1358 1357 1357 1356 1355 1354 1353 1352 1351 1350 1348 1347 1346 1344 1342 1341 1339 1337 1335 1333 1331 1328 1324 1321 1321 1321 1320 1318 1314 1311 1310 1308 1306 1304 1303 1302 1300 1297 1291 1284 1280 1279 1280 1280 1280 1279 1279 1278 1277 1275 1273 1271 1269 1267 1266 1264 1263 1262 1261 1260 1259 1259 1259 1259 1259 1258 1258 1257 1257 1257 1257 1257 1257 1257 1257 1257 1257 1258
1359 1359 1358 1358 1358 1357 1357 1357 1356 1355 1354 1353 1353 1352 1351 1350 1349 1348 1347 1346 1344 1343 1342 1340 1337 1336 1333 1332 1330 1327 1323 1321 1320 1319 1319 1317 1314 1311 1309 1307 1306 1303 1302 1301 1299 1297 1294 1288 1283 1279 1278 1277 1278 1278 1278 1277 1277 1275 1274 1272 1270 1268 1266 1265 1263 1262 1261 1259 1259 1258 1258 1257 1257 1257 1257 1257 1256 1256 1256 1256 1256 1256 1257 1257 1257 1258
1357 1357 1357 1356 1356 1356 1355 1354 1354 1353 1352 1352 1351 1350 1349 1348 1347 1346 1345 1344 1343 1342 1340 1338 1337 1334 1332 1330 1327 1325 1322 1320 1319 1319 1318 1316 1313 1310 1308 1307 1305 1303 1301 1299 1297 1296 1293 1290 1286 1282 1278 1276 1275 1276 1277 1277 1276 1275 1274 1272 1270 1268 1267 1265 1263 1262 1260 1259 1258 1257 1256 1256 1256 1256 1255 1255 1255 1255 1255 1255 1256 1256 1256 1257 1257 1258
1355 1355 1355 1354 1354 1354 1353 1353 1352 1352 1351 1350 1349 1348 1348 1347 1346 1345 1343 1342 1341 1340 1338 1337 1335 1333 1331 1329 1326 1323 1320 1318 1318 1317 1317 1315 1313 1310 1307 1306 1304 1303 1301 1298 1297 1295 1292 1289 1287 1284 1280 1276 1273 1273 1274 1275 1275 1274 1273 1272 1270 1269 1267 1265 1263 1261 1259 1258 1257 1256 1255 1254 1254 1254 1254 1254 1254 1254 1254 1255 1255 1256 1256 1257 1257 1258
1353 1353 1353 1352 1352 1352 1351 1351 1350 1350 1349 1348 1347 1347 1346 1345 1344 1343 1342 1340 1339 1338 1336 1335 1333 1332 1330 1328 1326 1322 1319 1317 1316 1316 1315 1314 1312 1310 1307 1305 1303 1302 1301 1298 1296 1294 1292 1289 1286 1284 1282 1278 1274 1272 1271 1272 1273 1273 1272 1271 1270 1268 1266 1265 1263 1261 1259 1257 1256 1255 1254 1253 1253 1252 1252 1252 1253 1253 1253 1254 1255 1255 1256 1257 1257 1258
1352 1351 1351 1350 1350 1350 1349 1349 1348 1348 1347 1346 1346 1345 1344 1343 1342 1341 1340 1339 1337 1336 1335 1333 1332 1330 1328 1326 1324 1321 1318 1316 1315 1314 1313 1312 1311 1309 1306 1304 1302 1301 1300 1298 1296 1294 1292 1289 1286 1283 1282 1279 1276 1272 1270 1270 1271 1271 1271 1271 1269 1267 1266 1264 1263 1261 1260 1258 1257 1255 1254 1253 1252 1252 1252 1252 1252 1252 1253 1253 1254 1255 1256 1257 1257 1258
1350 1349 1349 1348 1348 1348 1347 1347 1346 1346 1345 1345 1344 1343 1342 1341 1340 1339 1338 1337 1336 1334 1332 1331 1329 1327 1326 1324 1322 1319 1317 1315 1313 1312 1311 1310 1309 1307 1305 1302 1301 1300 1299 1297 1296 1293 1292 1289 1287 1284 1281 1278 1276 1274 1272 1270 1269 1269 1269 1269 1268 1267 1266 1264 1262 1261 1260 1258 1257 1256 1254 1254 1253 1252 1252 1252 1252 1252 1253 1253 1254 1255 1256 1257 1257 1258
1347 1347 1347 1347 1346 1346 1346 1345 1344 1344 1343 1343 1342 1341 1340 1339 1338 1337 1336 1335 1333 1332 1330 1328 1327 1325 1323 1321 1319 1317 1316 1314 1312 1311 1309 1308 1307 1306 1304 1302 1299 1298 1297 1296 1295 1293 1291 1289 1287 1284 1282 1279 1276 1273 1272 1270 1269 1267 1267 1267 1267 1266 1265 1264 1263 1262 1260 1259 1257 1256 1255 1254 1254 1254 1253 1253 1253 1253 1254 1254 1255 1256 1256 1257 1258 1258
1345 1345 1345 1344 1344 1344 1344 1343 1342 1342 1342 1341 1340 1339 1338 1337 1336 1335 1334 1333 1331 1330 1328 1327 1325 1323 1321 1320 1318 1316 1314 1312 1311 1309 1308 1307 1306 1304 1302 1301 1298 1297 1295 1294 1293 1292 1290 1288 1286 1284 1282 1280 1277 1274 1272 1270 1268 1267 1266 1265 1265 1264 1265 1264 1263 1262 1260 1259 1258 1257 1256 1255 1255 1255 1255 1254 1254 1254 1255 1255 1256 1257 1257 1258 1258 1259
1343 1343 1342 1342 1342 1342 1342 1341 1341 1340 1340 1339 1338 1337 1336 1335 1334 1333 1332 1331 1329 1328 1326 1325 1323 1322 1320 1318 1316 1315 1313 1311 1310 1308 1307 1305 1304 1303 1301 1299 1297 1296 1294 1293 1291 1290 1289 1287 1285 1283 1282 1280 1277 1275 1272 1270 1268 1267 1266 1265 1263 1263 1263 1263 1262 1262 1261 1259 1259 1258 1257 1257 1256 1256 1255 1255 1255 1255 1255 1256 1256 1257 1258 1259 1259 1260
1341 1341 1340 1340 1340 1340 1339 1339 1339 1338 1337 1337 1336 1335 1334 1333 1332 1331 1330 1329 1327 1326 1325 1323 1322 1320 1318 1316 1314 1313 1311 1310 1308 1307 1305 1304 1303 1301 1300 1298 1296 1295 1293 1292 1290 1288 1287 1286 1284 1283 1281 1279 1278 1275 1272 1270 1268 1267 1266 1264 1262 1261 1260 1261 1261 1262 1261 1260 1259 1258 1258 1257 1257 1256 1256 1256 1255 1255 1256 1256 1257 1257 1258 1259 1260 1260
1339 1338 1338 1338 1338 1338 1337 1337 1337 1336 1336 1335 1334 1333 1332 1332 1331 1330 1328 1327 1326 1324 1323 1322 1321 1319 1317 1314 1312 1310 1309 1308 1307 1305 1304 1303 1302 1300 1299 1297 1295 1294 1292 1291 1289 1287 1285 1284 1283 1282 1280 1279 1277 1275 1272 1270 1268 1267 1266 1264 1263 1261 1259 1258 1258 1259 1260 1259 1259 1258 1258 1257 1257 1256 1256 1256 1255 1255 1255 1256 1256 1257 1257 1258 1259 1260
1336 1336 1336 1336 1336 1336 1335 1335 1334 1334 1333 1333 1332 1331 1331 1330 1329 1328 1327 1325 1324 1323 1322 1320 1319 1317 1315 1313 1311 1309 1307 1306 1305 1304 1303 1302 1300 1299 1297 1296 1294 1292 1291 1289 1288 1286 1284 1283 1282 1280 1279 1278 1277 1275 1272 1270 1268 1267 1265 1264 1263 1262 1260 1257 1257 1257 1257 1257 1257 1257 1257 1257 1257 1256 1255 1255 1254 1254 1255 1255 1255 1256 1257 1257 1258 1259
1334 1334 1334 1334 1334 1333 1333 1332 1332 1332 1332 1331 1330 1329 1329 1328 1327 1327 1325 1324 1322 1321 1320 1319 1317 1316 1314 1312 1309 1307 1306 1304 1303 1302 1301 1300 1299 1297 1296 1294 1292 1291 1289 1288 1287 1285 1283 1282 1280 1278 1278 1277 1276 1274 1272 1270 1268 1267 1266 1264 1263 1262 1259 1257 1256 1256 1255 1255 1255 1256 1256 1257 1256 1256 1255 1254 1254 1254 1254 1254 1255 1256 1256 1257 1258 1258
1331 1331 1331 1331 1331 1331 1331 1330 1330 1330 1329 1329 1328 1327 1327 1326 1326 1325 1323 1322 1321 1320 1318 1317 1316 1315 1312 1310 1308 1307 1304 1302 1301 1300 1299 1298 1297 1296 1294 1293 1291 1290 1288 1286 1285 1283 1282 1281 1279 1277 1276 1275 1273 1272 1271 1270 1268 1267 1265 1264 1263 1262 1260 1258 1257 1256 1255 1254 1253 1253 1254 1255 1255 1255 1254 1254 1253 1253 1253 1254 1255 1255 1256 1257 1257 1258
1329 1329 1329 1329 1329 1329 1328 1328 1328 1327 1327 1326 1326 1325 1325 1324 1324 1323 1322 1321 1319 1318 1317 1316 1315 1313 1311 1309 1307 1306 1304 1302 1300 1298 1297 1296 1295 1294 1292 1291 1290 1289 1287 1285 1283 1282 1280 1278 1277 1276 1275 1273 1272 1270 1268 1268 1267 1267 1265 1264 1263 1262 1260 1258 1257 1256 1255 1254 1253 1252 1252 1252 1253 1253 1253 1253 1253 1253 1253 1254 1254 1255 1256 1257 1257 1257
1327 1327 1327 1327 1327 1326 1326 1326 1326 1325 1325 1324 1323 1323 1323 1322 1322 1321 1320 1319 1318 1317 1316 1314 1313 1311 1310 1308 1307 1305 1303 1301 1299 1297 1296 1294 1293 1292 1291 1290 1288 1287 1285 1284 1282 1280 1278 1277 1275 1274 1273 1272 1270 1268 1266 1266 1266 1265 1265 1264 1263 1262 1261 1259 1257 1257 1256 1254 1253 1252 1252 1252 1252 1251 1251 1252 1252 1252 1252 1253 1254 1254 1255 1256 1257 1257
1324 1324 1324 1324 1324 1324 1323 1323 1323 1323 1322 1322 1321 1321 1321 1320 1320 1319 1318 1317 1316 1315 1314 1312 1311 1310 1308 1307 1305 1303 1302 1300 1298 1296 1295 1293 1292 1291 1289 1288 1286 1285 1283 1281 1280 1278 1276 1274 1273 1272 1271 1270 1268 1267 1265 1264 1264 1264 1264 1263 1262 1262 1261 1259 1258 1257 1257 1255 1254 1253 1253 1252 1252 1251 1251 1251 1251 1251 1251 1252 1253 1253 1254 1255 1256 1256
1322 1322 1322 1322 1322 1321 1321 1321 1320 1320 1320 1319 1319 1319 1318 1318 1317 1317 1316 1315 1314 1313 1312 1311 1309 1308 1307 1305 1303 1302 1301 1299 1297 1295 1293 1292 1291 1289 1288 1286 1285 1283 1281 1279 1277 1276 1274 1272 1270 1269 1269 1268 1267 1266 1264 1263 1263 1263 1263 1262 1262 1261 1261 1259 1258 1258 1257 1256 1255 1255 1254 1253 1252 1252 1252 1251 1251 1251 1251 1251 1252 1252 1254 1255 1255 1256
1319 1319 1319 1319 1319 1318 1318 1318 1318 1318 1317 1317 1317 1317 1316 1315 1315 1314 1314 1313 1312 1311 1310 1309 1308 1307 1305 1303 1302 1301 1299 1297 1296 1294 1292 1291 1290 1288 1287 1285 1283 1282 1280 1278 1276 1274 1272 1271 1268 1267 1267 1267 1267 1266 1265 1263 1262 1262 1262 1261 1261 1261 1260 1259 1258 1258 1257 1257 1256 1255 1255 1254 1253 1253 1253 1252 1252 1251 1251 1250 1251 1252 1253 1254 1254 1255